Date,TemperatureHighF,TemperatureAvgF,TemperatureLowF,DewpointHighF,DewpointAvgF,DewpointLowF,HumidityHigh,HumidityAvg,HumidityLow,PressureMaxIn,PressureMinIn,WindSpeedMaxMPH,WindSpeedAvgMPH,GustSpeedMaxMPH,PrecipitationSumIn
2013-4-1,51,50,49,50,49,48,97,97,95,30.22,30.05,12,8,16,0.00
2013-4-2,52,50,48,51,48,45,97,95,90,30.25,30.19,10,5,13,0.01
2013-4-3,52,48,44,50,46,43,97,95,93,30.20,29.92,9,2,13,0.00
2013-4-4,56,52,50,55,51,49,97,96,95,29.93,29.71,37,16,57,0.61
2013-4-5,52,51,50,50,50,49,97,96,93,29.99,29.84,34,23,60,0.75
2013-4-6,52,50,48,51,49,46,96,95,92,30.04,29.71,27,18,52,0.56
2013-4-7,51,48,45,50,45,41,96,90,83,30.03,29.69,41,18,50,0.79
2013-4-8,51,47,42,46,43,39,91,85,79,30.32,30.02,17,8,22,0.08
2013-4-9,54,48,42,50,44,39,91,87,82,30.35,30.27,13,4,22,0.01
2013-4-10,52,50,46,51,47,43,96,91,79,30.37,30.22,23,11,33,0.18
2013-4-11,52,47,41,47,44,40,95,89,83,30.38,30.19,16,6,21,0.02
2013-4-12,51,45,39,48,43,37,95,90,82,30.20,29.95,21,9,28,0.09
2013-4-13,50,46,41,45,41,37,91,81,75,30.17,30.03,26,9,31,0.18
2013-4-14,47,44,40,43,41,38,92,89,83,30.14,29.98,12,5,19,0.15
2013-4-15,50,44,39,44,40,37,93,86,78,30.22,29.98,17,7,23,0.36
2013-4-16,51,48,43,45,43,40,91,83,78,30.43,30.22,14,6,18,0.03
2013-4-17,52,48,44,48,44,40,89,84,78,30.53,30.43,11,4,14,0.00
2013-4-18,54,50,46,48,44,40,92,83,75,30.51,30.38,13,4,15,0.00
2013-4-19,51,50,49,50,48,47,97,95,92,30.39,30.26,21,9,29,0.64
2013-4-20,53,49,47,49,46,43,97,90,81,30.40,30.33,14,7,17,0.05
2013-4-21,53,49,47,49,45,43,92,87,83,30.34,30.29,13,4,16,0.01
2013-4-22,65,50,40,49,44,38,94,81,39,30.37,30.31,21,8,30,0.00
2013-4-23,56,49,41,48,42,35,90,79,68,30.33,30.20,18,8,26,0.00
2013-4-24,62,52,43,46,42,32,90,70,40,30.21,30.02,25,10,34,0.00
2013-4-25,55,49,41,51,46,38,94,88,84,30.20,30.02,18,8,22,0.00
2013-4-26,52,47,43,50,46,42,97,94,90,30.29,30.19,16,7,21,0.00
2013-4-27,54,49,43,50,46,42,95,90,84,30.36,30.28,10,3,12,0.00
2013-4-28,55,51,49,54,49,46,97,92,87,30.33,30.20,13,3,18,0.01
2013-4-29,54,50,44,50,46,37,96,85,71,30.26,30.17,21,11,25,0.06
2013-4-30,52,47,43,44,40,36,81,76,70,30.46,30.26,19,10,25,0.01